Location: West Cummington
(42.4920°N, 72.9680°W)
Time: 21:43:46
(UTC-04:00)

Cosmos 1703 Rocket - Visible Passes

Search period start: 21 June 2018 00:00
Search period end: 01 July 2018 00:00
Orbit: 606 x 633 km, 82.5° (Epoch: 21 June)

Date Brightness Start Highest point End Pass type
(mag) Time Alt. Az. Time Alt. Az. Time Alt. Az.
21 Jun 5.3 02:07:59 10° NNE 02:11:49 28° ENE 02:14:27 16° SE visible
21 Jun 4.8 03:45:59 10° NW 03:49:34 25° W 03:51:35 18° SW visible
22 Jun 4.2 02:25:10 10° N 02:29:29 52° ENE 02:31:30 28° SE visible
22 Jun 5.5 04:04:39 10° NW 04:06:51 14° W 04:08:38 11° WSW visible
23 Jun 3.4 02:42:38 10° N 02:47:03 83° W 02:48:35 40° S visible
24 Jun 5.9 01:23:30 10° NNE 01:26:25 17° ENE 01:28:33 13° ESE visible
24 Jun 4.0 03:00:22 10° NNW 03:04:31 42° W 03:05:41 34° SW visible
25 Jun 5.1 01:40:17 10° NNE 01:44:11 30° ENE 01:45:41 24° ESE visible
25 Jun 4.9 03:18:25 10° NW 03:21:53 23° W 03:22:49 21° WSW visible
26 Jun 4.0 01:57:30 10° N 02:01:50 56° E 02:02:50 44° SE visible
26 Jun 5.6 03:37:16 10° WNW 03:39:10 13° W 03:39:59 12° W visible
27 Jun 3.4 02:15:00 10° N 02:19:24 77° W 02:20:01 63° SSW visible
28 Jun 5.6 00:55:44 10° NNE 00:58:47 18° ENE 01:00:04 16° E visible
28 Jun 4.1 02:32:45 10° NNW 02:36:50 39° W 02:37:13 38° WSW visible
29 Jun 4.8 01:12:35 10° NNE 01:16:32 32° ENE 01:17:17 30° E visible
29 Jun 5.0 02:50:53 10° NW 02:54:12 21° W 02:54:26 21° W visible
30 Jun 3.7 01:29:50 10° N 01:34:11 60° E 01:34:31 58° ESE visible
30 Jun 5.7 03:09:56 10° WNW 03:11:28 12° W 03:11:40 12° W visible
